• In Kazakhstan
  • List of Countries
  • For 7 days
  • Water Temperature
  • Satellite Maps
  • Weather Map
  • News
  • Weather Widgets
  • user-avatar
    Login

    Hourly Weather Bangarapet

    Today, 24 November, Friday

    Time Temperature Precipitation Wind Pressure Humidity
    00:00 +21°C° 0 mm 1 mps 690 mmHg 87%
    01:00 +21°C° 0 mm 1 mps 689 mmHg 89%
    02:00 +21°C° 0 mm 1 mps 689 mmHg 90%
    03:00 +19°C° 0 mm 0 mps 689 mmHg 90%
    04:00 +18°C° 0 mm 0 mps 689 mmHg 90%
    05:00 +18°C° 0 mm 0 mps 689 mmHg 91%
    06:00 +20°C° 0 mm 0 mps 690 mmHg 85%
    07:00 +21°C° 0 mm 0 mps 690 mmHg 79%
    08:00 +22°C° 0 mm 0 mps 691 mmHg 74%
    09:00 +26°C° 0 mm 1 mps 691 mmHg 68%
    10:00 +27°C° 0 mm 2 mps 691 mmHg 63%
    11:00 +29°C° 0 mm 3 mps 692 mmHg 57%
    12:00 +28°C° 0 mm 3 mps 691 mmHg 58%
    13:00 +28°C° 0 mm 3 mps 690 mmHg 58%
    14:00 +28°C° 0 mm 3 mps 690 mmHg 58%
    15:00 +27°C° 0 mm 3 mps 690 mmHg 62%
    16:00 +26°C° 0 mm 3 mps 689 mmHg 66%
    17:00 +25°C° 0 mm 3 mps 689 mmHg 70%
    18:00 +25°C° 0 mm 2 mps 690 mmHg 74%
    19:00 +24°C° 0 mm 2 mps 690 mmHg 77%
    20:00 +23°C° 0 mm 2 mps 691 mmHg 80%
    21:00 +21°C° 0 mm 2 mps 691 mmHg 83%
    22:00 +22°C° 0 mm 1 mps 691 mmHg 86%
    23:00 +21°C° 0 mm 1 mps 690 mmHg 89%

    Tomorrow, 25 November, Saturday

    Time Temperature Precipitation Wind Pressure Humidity
    00:00 +21°C° 0 mm 1 mps 690 mmHg 90%
    01:00 +21°C° 0 mm 1 mps 690 mmHg 92%
    02:00 +21°C° 0 mm 1 mps 689 mmHg 93%
    03:00 +20°C° 0 mm 1 mps 689 mmHg 94%
    04:00 +20°C° 0 mm 1 mps 689 mmHg 95%
    05:00 +20°C° 0 mm 1 mps 689 mmHg 95%
    06:00 +21°C° 0 mm 1 mps 690 mmHg 90%
    07:00 +22°C° 0 mm 1 mps 691 mmHg 85%
    08:00 +23°C° 0 mm 2 mps 692 mmHg 80%
    09:00 +25°C° 0 mm 3 mps 692 mmHg 73%
    10:00 +26°C° 0 mm 3 mps 692 mmHg 65%
    11:00 +27°C° 0 mm 4 mps 692 mmHg 58%
    12:00 +27°C° 0 mm 4 mps 691 mmHg 58%
    13:00 +28°C° 0 mm 4 mps 691 mmHg 58%
    14:00 +28°C° 0 mm 4 mps 690 mmHg 58%
    15:00 +27°C° 0 mm 4 mps 690 mmHg 64%
    16:00 +26°C° 0 mm 3 mps 690 mmHg 69%
    17:00 +25°C° 0 mm 3 mps 690 mmHg 75%
    18:00 +24°C° 0 mm 2 mps 690 mmHg 79%
    19:00 +21°C° 0 mm 2 mps 691 mmHg 83%
    20:00 +20°C° 0 mm 2 mps 691 mmHg 87%
    21:00 +20°C° 0 mm 2 mps 691 mmHg 89%
    22:00 +19°C° 0 mm 2 mps 691 mmHg 91%
    23:00 +19°C° 0 mm 2 mps 691 mmHg 93%

    Day after tomorrow, 26 November, Sunday

    Time Temperature Precipitation Wind Pressure Humidity
    00:00 +18°C° 0 mm 2 mps 690 mmHg 92%
    01:00 +18°C° 0 mm 2 mps 690 mmHg 91%
    02:00 +18°C° 0 mm 2 mps 689 mmHg 90%
    03:00 +18°C° 0 mm 2 mps 689 mmHg 87%
    04:00 +18°C° 0 mm 2 mps 689 mmHg 85%
    05:00 +18°C° 0 mm 2 mps 689 mmHg 82%
    06:00 +19°C° 0 mm 2 mps 690 mmHg 77%
    07:00 +20°C° 0 mm 3 mps 691 mmHg 73%
    08:00 +21°C° 0 mm 3 mps 692 mmHg 68%
    09:00 +22°C° 0 mm 3 mps 692 mmHg 69%
    10:00 +23°C° 0 mm 4 mps 692 mmHg 69%
    11:00 +26°C° 0 mm 4 mps 692 mmHg 70%
    12:00 +25°C° 0.1 mm 4 mps 691 mmHg 73%
    13:00 +25°C° 0.1 mm 4 mps 690 mmHg 76%
    14:00 +25°C° 0.1 mm 4 mps 689 mmHg 79%
    15:00 +24°C° 0.1 mm 3 mps 689 mmHg 82%
    16:00 +24°C° 0.1 mm 3 mps 689 mmHg 84%
    17:00 +22°C° 0.1 mm 3 mps 689 mmHg 87%
    18:00 +22°C° 0 mm 3 mps 690 mmHg 89%
    19:00 +21°C° 0 mm 3 mps 690 mmHg 92%
    20:00 +20°C° 0 mm 2 mps 691 mmHg 94%
    21:00 +20°C° 0 mm 2 mps 691 mmHg 95%
    22:00 +20°C° 0 mm 2 mps 691 mmHg 95%
    23:00 +20°C° 0 mm 2 mps 690 mmHg 96%

    27 November, Monday

    Time Temperature Precipitation Wind Pressure Humidity
    00:00 +20°C° 0 mm 2 mps 690 mmHg 96%
    01:00 +20°C° 0 mm 2 mps 689 mmHg 97%
    02:00 +19°C° 0 mm 2 mps 689 mmHg 97%
    03:00 +19°C° 0 mm 2 mps 689 mmHg 97%
    04:00 +19°C° 0 mm 2 mps 689 mmHg 97%
    05:00 +19°C° 0 mm 2 mps 689 mmHg 97%
    06:00 +20°C° 0 mm 3 mps 690 mmHg 93%
    07:00 +21°C° 0 mm 4 mps 690 mmHg 89%
    08:00 +23°C° 0 mm 4 mps 691 mmHg 85%
    09:00 +25°C° 0.1 mm 5 mps 691 mmHg 80%
    10:00 +26°C° 0.1 mm 5 mps 691 mmHg 74%
    11:00 +27°C° 0.1 mm 5 mps 691 mmHg 69%
    12:00 +27°C° 0.5 mm 5 mps 690 mmHg 70%
    13:00 +27°C° 0.5 mm 5 mps 689 mmHg 70%
    14:00 +27°C° 0.5 mm 5 mps 688 mmHg 70%
    15:00 +26°C° 0.3 mm 5 mps 688 mmHg 76%
    16:00 +25°C° 0.3 mm 4 mps 688 mmHg 81%
    17:00 +23°C° 0.3 mm 4 mps 688 mmHg 86%
    18:00 +22°C° 0 mm 3 mps 689 mmHg 89%
    19:00 +22°C° 0 mm 3 mps 689 mmHg 92%
    20:00 +21°C° 0 mm 3 mps 690 mmHg 96%
    21:00 +21°C° 0 mm 3 mps 690 mmHg 96%
    22:00 +21°C° 0 mm 3 mps 690 mmHg 96%
    23:00 +21°C° 0 mm 3 mps 689 mmHg 97%

    28 November, Tuesday

    Time Temperature Precipitation Wind Pressure Humidity
    00:00 +21°C° 0 mm 3 mps 689 mmHg 96%
    01:00 +21°C° 0 mm 3 mps 689 mmHg 96%
    02:00 +21°C° 0 mm 3 mps 688 mmHg 95%
    03:00 +20°C° 0 mm 3 mps 688 mmHg 96%
    04:00 +20°C° 0 mm 3 mps 688 mmHg 96%
    05:00 +20°C° 0 mm 3 mps 689 mmHg 96%
    06:00 +21°C° 0 mm 3 mps 689 mmHg 92%
    07:00 +22°C° 0 mm 4 mps 690 mmHg 88%
    08:00 +22°C° 0 mm 5 mps 691 mmHg 85%
    09:00 +25°C° 0 mm 5 mps 691 mmHg 80%
    10:00 +26°C° 0 mm 5 mps 690 mmHg 75%
    11:00 +27°C° 0 mm 6 mps 690 mmHg 70%
    12:00 +27°C° 0.1 mm 6 mps 690 mmHg 69%
    13:00 +28°C° 0.1 mm 6 mps 689 mmHg 68%
    14:00 +28°C° 0.1 mm 6 mps 688 mmHg 66%
    15:00 +27°C° 0.1 mm 5 mps 688 mmHg 71%
    16:00 +26°C° 0.1 mm 5 mps 688 mmHg 77%
    17:00 +25°C° 0.1 mm 4 mps 688 mmHg 82%
    18:00 +23°C° 0 mm 4 mps 689 mmHg 86%
    19:00 +22°C° 0 mm 4 mps 689 mmHg 91%
    20:00 +21°C° 0 mm 3 mps 690 mmHg 95%
    21:00 +21°C° 0 mm 3 mps 690 mmHg 96%
    22:00 +21°C° 0 mm 3 mps 690 mmHg 96%
    23:00 +21°C° 0 mm 3 mps 690 mmHg 96%

    29 November, Wednesday

    Time Temperature Precipitation Wind Pressure Humidity
    00:00 +21°C° 0.1 mm 3 mps 690 mmHg 95%
    01:00 +21°C° 0.1 mm 3 mps 689 mmHg 94%
    02:00 +21°C° 0.1 mm 3 mps 689 mmHg 94%
    03:00 +21°C° 0.1 mm 3 mps 689 mmHg 94%
    04:00 +21°C° 0.1 mm 3 mps 689 mmHg 93%
    05:00 +21°C° 0.1 mm 3 mps 690 mmHg 93%
    06:00 +21°C° 0 mm 4 mps 690 mmHg 91%
    07:00 +22°C° 0 mm 4 mps 691 mmHg 89%
    08:00 +22°C° 0 mm 4 mps 691 mmHg 87%
    09:00 +23°C° 0.1 mm 5 mps 691 mmHg 82%
    10:00 +25°C° 0.1 mm 5 mps 691 mmHg 78%
    11:00 +26°C° 0.1 mm 5 mps 691 mmHg 73%
    12:00 +27°C° 0.2 mm 5 mps 690 mmHg 72%
    13:00 +27°C° 0.2 mm 5 mps 690 mmHg 71%
    14:00 +27°C° 0.2 mm 5 mps 689 mmHg 70%
    15:00 +26°C° 0.2 mm 5 mps 689 mmHg 74%
    16:00 +25°C° 0.2 mm 4 mps 689 mmHg 78%
    17:00 +25°C° 0.2 mm 4 mps 689 mmHg 82%
    18:00 +24°C° 0 mm 3 mps 690 mmHg 85%
    19:00 +22°C° 0 mm 3 mps 690 mmHg 89%
    20:00 +21°C° 0 mm 3 mps 691 mmHg 93%
    21:00 +20°C° 0 mm 3 mps 691 mmHg 94%
    22:00 +20°C° 0 mm 2 mps 691 mmHg 95%
    23:00 +20°C° 0 mm 2 mps 691 mmHg 96%
    Show more